Tracking 19575 objects as of 18-Feb-2019
HD Live streaming from Space Station
objects crossing your sky now

ZHEDA PIXING 1C

Track ZHEDA PIXING 1C now!
10-day predictions
ZHEDA PIXING 1C is classified as:


NORAD ID: 37167
Int'l Code: 2010-047C
Perigee: 617.2 km
Apogee: 651.6 km
Inclination: 97.7 °
Period: 97.3 minutes
Semi major axis: 7005 km
RCS: 0.149 m2 (medium)
Launch date: September 22, 2010
Source: People's Republic of China (PRC)
Launch site: Jiuquan Satellite Launch Center, China (JSC)
aabbcc
Your satellite tracking list
Your tracking list is empty




NASA's NSSDC Master Catalog

Two Line Element Set (TLE):
1 37167U 10047C   19049.06696854  .00000097  00000-0  19147-4 0  9995
2 37167  97.6751  51.0696 0024564  43.3365 316.9777 14.80662949453925
Source of the keplerian elements: AFSPC